Dewpoint
55 55 55 55 55 55 55 55 55 54 54 54 54 53 53 51 50 49 48 48 48 48 47 46 45 44 44 42 42 42 42 41 41 41 41 40 39 38 37 36 35 34 33 33 32 32 31 31 31 30 30 30 30 30 29 29 29 29 29 28 28 28 29 29 29 29 30 30 30
55 55 55 55 55 55 55 54 54 54 53 53 53 53 52 51 50 49 48 47 47 47 46 45 44 43 42 42 42 42 41 41 40 41 41 39 38 37 36 35 35 33 33 32 32 32 31 30 30 30 29 30 29 29 28 29 28 28 28 28 28 28 28 28 28 29 29 29 30
55 55 54 54 54 54 54 54 54 53 53 53 53 52 52 51 50 49 48 47 46 46 45 44 43 42 41 41 41 41 41 40 40 40 40 39 38 37 36 35 34 33 33 32 31 31 31 30 30 30 29 29 29 28 28 28 29 28 28 28 28 28 28 28 28 28 28 29 29
55 54 54 54 54 54 54 54 53 53 53 53 52 51 51 51 50 49 48 46 45 45 44 43 42 41 41 41 41 41 41 41 40 40 39 39 37 36 35 35 34 33 32 31 31 30 30 30 30 30 29 29 28 28 28 28 29 28 28 28 29 29 28 28 28 28 28 28 29
54 54 54 54 54 54 54 54 53 53 52 52 51 51 50 50 49 48 47 46 45 44 44 43 42 41 41 40 40 40 40 40 41 40 39 38 37 36 35 35 34 33 32 32 31 30 30 30 30 29 29 29 29 28 28 28 28 28 28 29 29 29 29 28 29 29 29 29 28
54 54 54 54 54 54 54 54 53 53 52 52 51 50 50 49 49 48 47 46 45 44 44 43 42 41 41 40 40 39 39 39 40 39 39 38 36 36 35 35 33 32 32 31 31 30 29 29 29 29 29 29 28 28 28 29 28 28 28 29 29 29 29 29 29 29 29 29 28
54 54 54 54 54 53 53 53 53 52 52 51 50 50 49 49 48 48 47 46 45 44 43 43 42 41 40 39 39 39 39 39 39 39 38 37 36 35 35 34 33 32 32 31 30 30 29 29 29 29 30 30 29 28 29 29 28 28 28 28 29 29 29 29 29 29 29 28 28
54 54 54 54 53 53 53 52 52 52 51 51 50 49 49 48 48 47 47 46 45 44 43 43 42 41 40 39 39 39 39 39 39 38 37 37 36 35 34 33 32 31 31 30 30 30 29 29 29 29 30 30 29 29 29 28 28 27 27 28 29 29 29 28 29 29 29 28 27
54 54 54 53 53 53 53 52 52 52 51 50 50 49 49 48 48 47 46 46 45 44 43 43 42 40 40 39 39 39 38 38 38 37 37 36 35 34 33 32 31 31 30 30 30 29 28 28 29 29 30 30 29 29 28 28 27 27 27 28 29 29 29 29 29 29 28 28 27
54 53 53 53 53 53 52 52 52 51 51 50 49 49 48 48 47 47 46 46 45 44 43 42 41 40 39 39 39 38 38 38 38 37 36 35 35 34 33 32 31 31 31 30 30 29 28 28 28 29 29 29 29 28 28 27 27 27 27 29 29 29 29 30 30 30 29 28 27
53 53 53 53 52 52 52 51 51 51 51 50 49 48 48 48 47 46 46 45 44 43 43 42 41 40 39 39 38 38 38 38 37 36 35 35 34 33 32 32 31 31 31 30 30 29 29 28 28 28 29 29 28 28 27 27 27 27 27 28 29 28 28 29 30 30 30 29 28
53 52 52 52 52 52 51 51 51 51 50 49 48 48 47 47 46 46 45 44 44 43 42 42 41 40 40 39 39 38 38 37 37 36 35 35 34 33 32 31 30 30 30 30 29 29 29 28 28 28 28 28 28 27 27 27 27 27 27 28 28 28 28 29 30 30 30 30 29
52 51 51 51 51 51 51 51 51 50 50 49 48 47 47 46 46 45 44 44 43 43 42 41 41 40 40 39 39 38 38 37 36 36 35 34 34 33 32 31 30 30 30 29 29 29 28 28 28 27 27 28 27 27 27 27 28 28 28 28 28 28 28 28 30 30 30 30 29
50 50 51 50 50 50 51 51 50 50 49 48 47 47 46 46 45 44 44 43 43 42 41 40 40 40 39 39 39 38 37 37 36 35 35 34 33 32 31 31 30 30 30 30 30 29 28 27 27 27 27 27 27 27 28 28 29 30 30 30 29 28 28 28 29 30 30 30 30
49 49 49 49 50 50 50 50 49 49 48 47 47 46 45 45 44 44 44 42 42 41 40 39 39 39 39 39 39 38 37 36 35 35 34 34 33 32 31 30 30 30 31 30 30 29 28 27 27 27 27 28 28 28 28 28 30 31 31 31 30 29 28 28 30 30 30 30 30
48 48 48 49 49 50 50 49 49 48 47 47 46 45 44 44 44 43 43 42 41 40 39 39 39 39 39 39 38 37 36 35 35 34 34 33 32 31 30 30 30 30 31 30 30 28 27 27 27 28 29 30 30 30 29 29 30 31 31 31 30 30 30 30 30 31 31 31 31
47 48 48 48 49 49 48 48 48 47 47 46 45 44 44 44 43 42 42 41 40 39 38 38 38 38 38 38 37 36 35 35 34 34 33 32 31 30 30 29 30 31 32 31 29 28 27 27 27 29 30 32 32 32 32 31 32 32 31 30 30 30 31 32 32 32 31 31 32
46 47 47 48 48 48 48 47 47 46 45 44 44 43 43 43 42 41 41 40 39 38 37 37 37 37 37 36 36 35 35 34 33 33 32 31 30 29 29 29 31 33 34 32 30 28 27 27 27 28 30 31 32 33 33 33 33 33 32 30 31 32 32 33 33 32 32 32 33
45 45 46 47 47 47 46 46 45 44 44 43 42 42 42 41 40 40 39 39 38 37 37 36 36 36 35 35 35 35 34 33 32 32 31 30 29 28 28 29 31 33 35 33 31 29 28 27 27 27 28 30 31 32 32 33 32 32 32 32 33 33 33 33 33 32 32 32 33
44 44 45 45 45 45 44 44 44 43 42 41 41 40 40 39 39 39 38 37 37 36 36 36 35 35 35 34 34 33 33 32 31 30 30 29 28 29 29 30 32 34 35 34 32 30 29 28 27 27 28 30 30 30 31 31 31 31 32 33 33 33 33 33 32 32 32 32 32
43 43 44 44 44 43 43 42 42 41 41 40 40 39 39 38 38 38 37 36 36 36 35 35 35 34 33 33 32 32 32 32 30 30 29 28 29 30 30 30 33 34 35 34 33 32 31 29 28 28 29 29 30 31 30 30 30 31 32 32 32 32 32 32 32 32 32 32 33
42 42 42 42 42 41 41 40 40 40 39 39 39 38 38 37 37 36 36 35 35 35 35 35 34 33 33 32 31 31 31 31 30 29 29 28 29 30 30 30 33 34 34 34 33 33 32 30 30 30 30 30 31 32 32 30 30 31 32 32 32 32 33 33 33 33 33 33 33
40 40 40 40 40 40 40 39 39 39 38 38 37 37 36 36 35 35 35 34 35 34 34 34 33 32 32 31 31 30 30 30 29 29 28 28 29 30 30 31 33 34 34 33 32 32 32 31 31 31 32 31 32 32 31 30 31 32 32 32 33 33 33 33 33 33 33 34 34
39 39 39 39 39 39 39 38 37 37 37 36 36 35 35 35 34 34 33 33 34 33 33 33 32 31 30 30 30 30 29 29 28 28 28 27 28 29 30 30 32 33 33 33 32 32 32 32 31 31 32 32 32 31 31 32 32 32 32 32 33 33 33 33 33 34 34 34 34
38 38 38 38 37 37 37 36 36 36 35 35 34 34 33 33 33 32 32 32 32 32 32 31 30 30 29 29 29 29 28 28 29 29 28 27 28 28 29 29 30 31 32 34 35 35 35 34 33 32 32 32 31 30 31 32 32 32 32 32 32 32 32 32 32 33 33 33 33
37 37 37 36 36 36 35 35 35 35 34 33 32 32 32 32 32 31 31 31 31 31 30 30 29 29 29 28 28 28 28 28 29 29 29 27 28 28 29 29 30 31 32 34 36 37 37 36 35 35 33 33 32 32 32 32 32 32 32 32 32 32 31 31 31 31 32 32 32
37 36 36 35 35 35 34 34 33 33 32 32 31 31 31 31 31 31 30 30 30 30 30 29 29 30 30 28 27 27 28 28 29 30 30 28 28 29 29 30 30 31 34 35 37 37 38 37 37 36 34 33 33 33 32 32 33 33 33 33 32 32 31 30 30 31 31 31 31
36 36 35 34 34 33 33 32 32 31 31 31 30 30 30 30 30 30 30 30 30 29 29 28 29 30 30 28 27 27 28 28 28 29 29 28 28 29 29 30 31 33 35 37 38 38 39 38 38 37 35 33 32 33 33 33 33 33 33 33 33 33 32 32 31 31 31 30 30
36 35 34 34 33 32 31 31 31 30 30 30 30 30 30 30 30 30 30 29 29 29 28 28 29 29 29 28 27 27 27 27 28 28 29 28 28 29 30 31 31 33 35 38 39 39 39 39 39 38 37 35 32 32 33 34 33 32 32 32 33 33 33 33 33 32 31 30 30
36 35 34 33 32 31 31 31 30 30 30 29 29 29 29 29 29 29 29 29 28 28 28 29 29 28 28 27 27 27 28 28 28 28 28 28 29 29 30 32 31 33 35 38 39 39 40 39 39 39 38 37 35 34 34 33 33 32 32 32 32 32 32 32 32 32 31 31 30
36 35 34 33 32 31 31 30 30 29 29 29 28 28 28 28 28 28 28 28 28 29 29 29 28 28 27 27 27 27 27 28 28 29 28 28 30 30 30 31 31 33 36 39 39 40 40 40 40 39 39 39 36 35 34 33 32 32 32 32 32 32 32 32 32 31 31 30 30
35 35 34 33 32 31 30 30 30 29 28 28 28 28 28 28 28 28 28 28 28 29 29 29 28 27 27 27 27 27 28 28 29 29 29 29 30 30 30 31 30 33 36 39 39 40 40 41 41 40 40 39 38 35 34 32 32 32 31 31 31 31 31 30 31 30 30 30 29
35 35 34 33 32 31 30 30 29 28 28 28 27 27 27 27 27 27 28 28 28 28 28 28 28 27 27 27 27 28 28 28 29 30 31 30 30 30 30 31 30 33 37 39 40 40 40 41 41 41 41 40 39 37 35 34 33 32 32 32 32 32 31 31 31 30 30 29 28
35 35 34 33 32 31 30 29 29 28 28 27 27 27 27 27 27 27 27 28 28 28 28 28 28 27 27 27 27 28 28 29 30 30 30 30 30 30 30 31 31 34 37 39 40 40 40 41 41 41 41 41 40 39 37 35 35 34 33 33 33 32 32 32 31 30 30 29 29
35 34 34 33 31 30 29 29 28 28 27 27 26 26 26 26 26 26 27 28 28 28 28 28 28 28 27 27 28 28 29 30 29 29 29 29 29 30 30 30 31 34 37 39 40 40 40 41 41 41 41 41 40 39 38 36 36 35 35 34 34 33 33 32 31 30 29 28 29
35 34 33 32 31 30 29 28 28 28 27 27 26 26 26 26 26 26 27 29 29 28 28 28 28 27 27 27 28 29 29 29 29 29 29 29 29 30 30 30 31 34 36 38 39 40 40 41 41 41 41 40 39 38 37 36 35 35 34 34 34 33 33 32 31 30 29 29 29
34 34 33 31 30 30 29 28 28 27 27 26 26 26 26 26 26 27 28 30 28 28 28 28 28 27 27 27 28 28 29 29 29 29 30 31 30 30 30 30 31 33 36 38 39 40 40 41 41 41 41 40 38 37 35 34 34 33 32 32 32 32 32 32 31 30 29 28 29
33 33 32 31 30 29 29 28 28 27 27 26 26 26 26 26 26 27 28 30 28 28 28 28 27 27 27 28 28 28 29 29 30 30 30 31 31 30 30 30 31 33 35 38 39 39 40 41 41 41 40 39 37 35 34 33 32 31 31 32 32 32 31 32 31 30 30 29 32
33 33 32 31 30 29 28 28 28 27 27 27 26 26 26 26 26 27 29 30 28 28 28 28 27 28 28 29 29 29 28 29 30 31 31 31 31 31 31 31 31 32 35 37 38 39 40 40 41 41 41 40 37 35 34 33 32 31 31 31 32 32 31 30 30 30 30 29 35
32 32 32 31 30 29 28 28 28 27 27 27 26 26 26 26 26 28 29 30 28 28 28 28 28 28 29 30 29 29 28 29 30 31 32 31 32 33 34 32 31 32 34 37 38 39 40 40 40 40 40 40 36 34 33 32 31 31 31 32 32 32 31 30 30 29 29 29 33
31 31 31 30 30 29 28 28 28 27 27 27 26 26 26 27 27 28 29 29 28 28 28 28 28 29 30 31 30 29 29 29 29 30 31 32 32 34 35 33 31 31 33 35 37 39 39 40 40 40 40 39 35 33 32 32 31 31 31 31 32 32 32 31 30 29 28 28 29